Time,TemperatureF,DewpointF,PressureIn,WindDirection,WindDirectionDegrees,WindSpeedMPH,WindSpeedGustMPH,Humidity,HourlyPrecipIn,Conditions,Clouds,dailyrainin,SoftwareType,DateUTC
2013-07-11 00:00:00,71.0,63.0,29.97,WSW,247,0.0,0.0,76,0.00,,,0.00,Weather View 32 v70,2013-07-11 04:00:00,
2013-07-11 00:01:00,71.0,63.4,29.97,WSW,247,0.0,0.0,77,0.00,,,0.00,Weather View 32 v70,2013-07-11 04:01:00,
2013-07-11 00:06:00,71.0,63.0,29.97,WSW,247,0.0,0.0,76,0.00,,,0.00,Weather View 32 v70,2013-07-11 04:06:00,
2013-07-11 00:11:00,71.0,62.6,29.97,WSW,247,0.0,0.0,75,0.00,,,0.00,Weather View 32 v70,2013-07-11 04:11:00,
2013-07-11 00:16:00,71.0,62.6,29.97,WSW,247,0.0,0.0,75,0.00,,,0.00,Weather View 32 v70,2013-07-11 04:16:00,
2013-07-11 00:21:00,71.0,62.6,29.97,WSW,247,0.0,0.0,75,0.00,,,0.00,Weather View 32 v70,2013-07-11 04:21:00,
2013-07-11 00:26:00,71.0,62.3,29.97,WSW,247,0.0,0.0,74,0.00,,,0.00,Weather View 32 v70,2013-07-11 04:26:00,
2013-07-11 00:31:00,71.0,61.9,29.97,WSW,247,0.0,0.0,73,0.00,,,0.00,Weather View 32 v70,2013-07-11 04:31:00,
2013-07-11 00:36:00,71.0,61.9,29.97,WSW,247,0.0,0.0,73,0.00,,,0.00,Weather View 32 v70,2013-07-11 04:36:00,
2013-07-11 00:41:00,71.0,61.5,29.97,WSW,247,0.0,0.0,72,0.00,,,0.00,Weather View 32 v70,2013-07-11 04:41:00,
2013-07-11 00:46:00,71.0,61.5,29.97,WSW,247,0.0,0.0,72,0.00,,,0.00,Weather View 32 v70,2013-07-11 04:46:00,
2013-07-11 00:51:00,71.0,61.5,29.97,WSW,247,0.0,0.0,72,0.00,,,0.00,Weather View 32 v70,2013-07-11 04:51:00,
2013-07-11 00:56:00,71.0,61.1,29.97,WSW,247,0.0,0.0,71,0.00,,,0.00,Weather View 32 v70,2013-07-11 04:56:00,
2013-07-11 01:01:00,70.0,60.1,29.97,WSW,247,0.0,0.0,71,0.00,,,0.00,Weather View 32 v70,2013-07-11 05:01:00,
2013-07-11 01:06:00,70.0,60.5,29.97,WSW,247,0.0,0.0,72,0.00,,,0.00,Weather View 32 v70,2013-07-11 05:06:00,
2013-07-11 01:11:00,70.0,60.1,29.97,WSW,247,0.0,0.0,71,0.00,,,0.00,Weather View 32 v70,2013-07-11 05:11:00,
2013-07-11 01:16:00,70.0,60.1,29.97,WSW,247,0.0,0.0,71,0.00,,,0.00,Weather View 32 v70,2013-07-11 05:16:00,
2013-07-11 01:21:00,70.0,60.1,29.97,WSW,247,0.0,0.0,71,0.00,,,0.00,Weather View 32 v70,2013-07-11 05:21:00,
2013-07-11 01:26:00,70.0,60.1,29.97,WSW,247,0.0,0.0,71,0.00,,,0.00,Weather View 32 v70,2013-07-11 05:26:00,
2013-07-11 01:31:00,70.0,60.1,29.97,WSW,247,0.0,0.0,71,0.00,,,0.00,Weather View 32 v70,2013-07-11 05:31:00,
2013-07-11 01:36:00,70.0,60.1,29.97,WSW,247,0.0,0.0,71,0.00,,,0.00,Weather View 32 v70,2013-07-11 05:36:00,
2013-07-11 01:41:00,70.0,59.7,29.98,North,360,3.0,9.0,70,0.00,,,0.00,Weather View 32 v70,2013-07-11 05:41:00,
2013-07-11 01:46:00,71.0,60.7,29.97,North,360,1.0,9.0,70,0.00,,,0.00,Weather View 32 v70,2013-07-11 05:46:00,
2013-07-11 01:51:00,71.0,60.3,29.97,North,360,0.0,9.0,69,0.00,,,0.00,Weather View 32 v70,2013-07-11 05:51:00,
2013-07-11 01:56:00,71.0,59.9,29.97,North,360,0.0,9.0,68,0.00,,,0.00,Weather View 32 v70,2013-07-11 05:56:00,
2013-07-11 02:01:00,71.0,59.9,29.97,North,360,2.0,9.0,68,0.00,,,0.00,Weather View 32 v70,2013-07-11 06:01:00,
2013-07-11 02:06:00,71.0,59.9,29.97,North,360,0.0,9.0,68,0.00,,,0.00,Weather View 32 v70,2013-07-11 06:06:00,
2013-07-11 02:11:00,71.0,59.9,29.97,North,360,0.0,9.0,68,0.00,,,0.00,Weather View 32 v70,2013-07-11 06:11:00,
2013-07-11 02:16:00,71.0,60.7,29.98,North,360,0.0,9.0,70,0.00,,,0.00,Weather View 32 v70,2013-07-11 06:16:00,
2013-07-11 02:21:00,71.0,60.7,29.98,North,360,0.0,9.0,70,0.00,,,0.00,Weather View 32 v70,2013-07-11 06:21:00,
2013-07-11 02:26:00,71.0,60.7,29.97,North,360,2.0,9.0,70,0.00,,,0.00,Weather View 32 v70,2013-07-11 06:26:00,
2013-07-11 02:31:00,71.0,60.7,29.97,North,360,1.0,9.0,70,0.00,,,0.00,Weather View 32 v70,2013-07-11 06:31:00,
2013-07-11 02:36:00,71.0,60.7,29.97,North,360,1.0,9.0,70,0.00,,,0.00,Weather View 32 v70,2013-07-11 06:36:00,
2013-07-11 02:41:00,71.0,60.7,29.97,North,360,4.0,4.0,70,0.00,,,0.00,Weather View 32 v70,2013-07-11 06:41:00,
2013-07-11 02:46:00,71.0,60.3,29.97,North,360,2.0,5.0,69,0.00,,,0.00,Weather View 32 v70,2013-07-11 06:46:00,
2013-07-11 02:51:00,71.0,60.7,29.97,North,360,0.0,5.0,70,0.00,,,0.00,Weather View 32 v70,2013-07-11 06:51:00,
2013-07-11 02:56:00,71.0,60.3,29.97,North,360,1.0,5.0,69,0.00,,,0.00,Weather View 32 v70,2013-07-11 06:56:00,
2013-07-11 03:01:00,71.0,59.9,29.97,North,360,1.0,5.0,68,0.00,,,0.00,Weather View 32 v70,2013-07-11 07:01:00,
2013-07-11 03:06:00,71.0,60.3,29.97,North,360,3.0,7.0,69,0.00,,,0.00,Weather View 32 v70,2013-07-11 07:06:00,
2013-07-11 03:11:00,71.0,59.9,29.97,WNW,292,0.0,7.0,68,0.00,,,0.00,Weather View 32 v70,2013-07-11 07:11:00,
2013-07-11 03:16:00,71.0,59.9,29.97,NNW,337,1.0,7.0,68,0.00,,,0.00,Weather View 32 v70,2013-07-11 07:16:00,
2013-07-11 23:05:00,69.0,65.3,30.04,NNE,22,2.0,3.0,88,0.00,,,0.00,Weather View 32 v70,2013-07-12 03:05:00,
2013-07-11 23:10:00,68.0,64.6,30.04,NNE,22,2.0,4.0,89,0.00,,,0.00,Weather View 32 v70,2013-07-12 03:10:00,
2013-07-11 23:15:00,68.0,64.9,30.05,NNE,22,4.0,5.0,90,0.00,,,0.00,Weather View 32 v70,2013-07-12 03:15:00,
2013-07-11 23:20:00,68.0,64.9,30.05,NNE,22,2.0,5.0,90,0.00,,,0.00,Weather View 32 v70,2013-07-12 03:20:00,
2013-07-11 23:25:00,68.0,65.3,30.05,NNE,22,2.0,5.0,91,0.00,,,0.00,Weather View 32 v70,2013-07-12 03:25:00,
2013-07-11 23:30:00,68.0,65.3,30.05,NNE,22,0.0,5.0,91,0.00,,,0.00,Weather View 32 v70,2013-07-12 03:30:00,
2013-07-11 23:36:00,68.0,65.3,30.05,NNE,22,1.0,5.0,91,0.00,,,0.00,Weather View 32 v70,2013-07-12 03:36:00,
2013-07-11 23:41:00,67.0,64.3,30.05,NNE,22,0.0,5.0,91,0.00,,,0.00,Weather View 32 v70,2013-07-12 03:41:00,
2013-07-11 23:47:00,67.0,64.6,30.05,NNE,22,0.0,5.0,92,0.00,,,0.00,Weather View 32 v70,2013-07-12 03:47:00,
2013-07-11 23:52:00,66.0,64.2,30.05,NNE,22,0.0,5.0,94,0.00,,,0.00,Weather View 32 v70,2013-07-12 03:52:00,
2013-07-11 23:57:00,66.0,64.8,30.05,NNE,22,0.0,5.0,96,0.00,,,0.00,Weather View 32 v70,2013-07-12 03:57:00,